Notices

Please take our survey and provide feedback: https://eccc.sondage-survey.ca/f/LanguageSelection.aspx?s=442ca660-fcf1-47c0-95a9-59707d6fd709

Please note that the IDF dataset is available through this link: Intensity-Duration-Frequency (IDF) Files .

Hourly Data Report for November 28, 2020

SHEARWATER RCS
NOVA SCOTIA
Current Station Operator: ECCC - MSC

44°37'47.000" N
63°30'48.000" W
24.00 m
8205092
71264
AAW

Download Data

Hourly Data (November 2020)
Hourly Data Report for November 28, 2020
TIME
LST
Temp Definition
°C
Dew Point Definition
°C
Rel Hum Definition
%
Precip. Amount Definition
mm

Wind Dir Definition
10's deg

Wind Spd Definition
km/h
Visibility Definition
km
Stn Press Definition
kPa
Hmdx Definition


Wind Chill Definition


Weather Definition


00:00 10.7 9.9 95 0.0 33 7   100.80     LegendNANA
01:00 10.4 9.6 95 0.0 30 5   100.82     LegendNANA
02:00 10.2 9.2 94 0.0 1 4   100.76     LegendNANA
03:00 9.9 9.1 95 0.0 34 3   100.77     LegendNANA
04:00 9.7 9.0 96 0.0 8 1   100.72     LegendNANA
05:00 8.9 8.4 96 0.0 3 9   100.68     LegendNANA
06:00 8.5 8.0 97 0.0 36 8   100.70     LegendNANA
07:00 8.1 7.6 97 0.2 3 4   100.70     LegendNANA
08:00 7.6 6.9 95 0.0 3 8   100.65     LegendNANA
09:00 7.7 7.1 96 0.0 16 3   100.71     LegendNANA
10:00 7.9 7.4 97 0.0 9 2   100.68     LegendNANA
11:00 8.1 7.6 97 0.0 19 2   100.65     LegendNANA
12:00 8.6 8.1 97 0.0 23 5   100.58     LegendNANA
13:00 9.2 7.9 92 0.0 28 6   100.54     LegendNANA
14:00 9.1 7.7 91 0.0 30 6   100.52     LegendNANA
15:00 9.4 7.8 90 0.0 26 6   100.53     LegendNANA
16:00 8.9 7.4 90 0.0 31 9   100.51     LegendNANA
17:00 8.1 7.1 94 0.0 36 7   100.53     LegendNANA
18:00 7.4 6.5 94 0.3 35 11   100.58     LegendNANA
19:00 6.7 5.7 93 0.0 34 13   100.60     LegendNANA
20:00 6.0 4.9 93 0.0 33 14   100.65     LegendNANA
21:00 5.6 4.3 91 0.0 35 14   100.67     LegendNANA
22:00 5.3 4.1 92 0.0 33 10   100.71     LegendNANA
23:00 4.8 2.7 86 0.0 33 15   100.73     LegendNANA

Notes on Data Quality.

Legend

  • E = Estimated
  • M = Missing
  • NA = Not Available*
  • [empty] = Indicates an unobserved value
Date modified: